Temp
-6 -6 -6 -6 -6 -7 -7 -7 -7 -7 -7 -7 -7 -7 -7 -7 -7 -7 -7 -7 -7 -7 -7 -7 -7 -7 -7 -7 -7 -7 -7 -6 -6 -6 -6 -6 -6 -6 -6 -6 -6 -6 -6
-6 -6 -7 -7 -7 -7 -7 -7 -7 -7 -7 -7 -7 -7 -7 -7 -7 -7 -7 -7 -7 -7 -7 -7 -7 -7 -7 -7 -7 -7 -7 -7 -7 -7 -6 -6 -6 -6 -6 -6 -6 -6 -6
-7 -7 -7 -7 -7 -7 -7 -7 -7 -7 -7 -8 -7 -8 -7 -7 -7 -7 -7 -7 -7 -7 -7 -7 -7 -7 -7 -7 -7 -7 -7 -7 -7 -7 -7 -6 -6 -6 -6 -6 -6 -6 -6
-7 -7 -7 -7 -7 -7 -8 -8 -8 -7 -7 -8 -8 -8 -8 -8 -8 -7 -7 -7 -7 -8 -8 -7 -7 -7 -7 -7 -7 -7 -7 -7 -7 -7 -7 -7 -7 -7 -7 -7 -6 -6 -6
-7 -7 -7 -8 -8 -8 -8 -8 -8 -8 -8 -8 -8 -8 -7 -7 -7 -7 -7 -7 -7 -7 -7 -7 -8 -8 -7 -7 -7 -7 -7 -7 -7 -7 -7 -7 -7 -7 -7 -7 -7 -7 -7
-8 -8 -8 -8 -8 -8 -8 -8 -8 -8 -8 -8 -8 -8 -7 -7 -7 -7 -7 -7 -7 -7 -7 -7 -7 -7 -8 -7 -7 -7 -7 -7 -7 -7 -7 -7 -7 -7 -7 -7 -7 -7 -7
-8 -8 -8 -8 -8 -8 -8 -8 -8 -8 -8 -8 -8 -8 -7 -7 -7 -7 -7 -7 -7 -7 -7 -7 -7 -7 -7 -8 -8 -7 -7 -7 -8 -7 -8 -7 -7 -7 -7 -7 -7 -7 -7
-8 -8 -8 -8 -8 -8 -8 -8 -8 -8 -8 -8 -8 -8 -7 -7 -7 -7 -7 -7 -7 -7 -7 -7 -7 -7 -7 -7 -7 -8 -8 -8 -7 -8 -8 -8 -8 -7 -7 -7 -7 -7 -7
-9 -9 -9 -8 -8 -8 -8 -8 -8 -8 -8 -8 -8 -7 -7 -7 -7 -7 -7 -7 -7 -7 -7 -7 -7 -7 -7 -7 -7 -7 -7 -8 -8 -8 -8 -8 -8 -8 -8 -8 -8 -8 -8
-9 -9 -9 -9 -9 -9 -9 -9 -8 -8 -8 -8 -8 -7 -7 -7 -8 -8 -8 -8 -8 -8 -8 -8 -8 -8 -8 -8 -8 -8 -8 -8 -8 -8 -8 -8 -8 -8 -8 -8 -8 -8 -8
-9 -9 -9 -9 -9 -8 -8 -8 -8 -8 -8 -8 -8 -8 -8 -8 -8 -8 -8 -8 -8 -8 -8 -8 -8 -8 -9 -9 -8 -8 -8 -8 -8 -8 -8 -8 -8 -8 -8 -8 -9 -8 -9
-9 -9 -9 -9 -9 -9 -9 -9 -9 -8 -8 -8 -9 -9 -9 -9 -9 -9 -9 -9 -9 -9 -9 -9 -9 -9 -9 -9 -9 -9 -9 -9 -9 -9 -9 -8 -8 -9 -9 -9 -9 -9 -9
-9 -9 -9 -9 -9 -9 -9 -9 -9 -9 -9 -9 -9 -9 -9 -9 -9 -9 -9 -9 -9 -9 -9 -9 -9 -9 -9 -9 -9 -9 -9 -9 -9 -9 -9 -9 -9 -9 -9 -9 -9 -9 -9
-9 -9 -9 -9 -9 -9 -9 -9 -9 -9 -10 -10 -10 -10 -9 -9 -10 -9 -9 -9 -9 -9 -9 -9 -9 -9 -9 -9 -9 -9 -9 -9 -9 -9 -9 -9 -9 -9 -9 -9 -9 -9 -10
-9 -9 -9 -9 -9 -9 -9 -9 -10 -10 -10 -10 -10 -10 -10 -10 -10 -9 -9 -9 -9 -9 -9 -9 -9 -9 -9 -9 -9 -9 -9 -9 -9 -9 -9 -9 -9 -9 -10 -10 -10 -10 -10
-10 -10 -10 -9 -9 -9 -10 -10 -10 -10 -10 -10 -10 -9 -9 -9 -9 -10 -10 -9 -9 -9 -9 -9 -9 -9 -9 -9 -9 -9 -9 -9 -9 -10 -10 -10 -10 -10 -10 -10 -10 -10 -10
-10 -10 -10 -10 -10 -10 -10 -10 -10 -10 -10 -10 -10 -10 -10 -10 -10 -10 -10 -10 -10 -10 -10 -10 -10 -10 -10 -10 -10 -10 -10 -10 -10 -10 -10 -10 -11 -11 -11 -11 -11 -11 -10
-10 -9 -10 -10 -10 -10 -10 -10 -10 -10 -10 -10 -10 -10 -10 -10 -10 -10 -11 -11 -11 -11 -11 -11 -11 -10 -10 -10 -10 -10 -10 -10 -11 -11 -11 -11 -11 -11 -11 -11 -11 -11 -11
-10 -10 -10 -10 -10 -10 -10 -10 -10 -10 -10 -10 -11 -11 -11 -11 -11 -11 -11 -11 -11 -11 -11 -12 -12 -11 -11 -11 -11 -10 -11 -11 -11 -12 -12 -12 -12 -12 -12 -12 -12 -12 -12
-10 -10 -10 -10 -10 -10 -10 -10 -10 -10 -10 -11 -11 -11 -11 -11 -11 -11 -11 -12 -12 -12 -12 -12 -12 -11 -11 -11 -11 -10 -11 -10 -12 -13 -13 -13 -13 -13 -13 -13 -13 -13 -13
-10 -10 -10 -10 -10 -10 -10 -11 -11 -11 -11 -11 -11 -11 -12 -12 -11 -11 -12 -12 -12 -12 -12 -12 -12 -12 -11 -11 -11 -11 -11 -11 -13 -13 -13 -13 -13 -13 -12 -12 -13 -13 -13
-10 -10 -10 -10 -10 -11 -11 -11 -11 -11 -12 -12 -12 -12 -12 -12 -12 -12 -12 -12 -12 -12 -12 -12 -12 -12 -12 -11 -11 -11 -13 -14 -14 -14 -13 -13 -12 -12 -13 -12 -12 -13 -13
-11 -11 -11 -11 -11 -11 -11 -12 -12 -12 -12 -12 -12 -12 -13 -12 -12 -12 -12 -12 -12 -12 -12 -12 -12 -12 -12 -12 -12 -12 -13 -14 -14 -13 -13 -13 -13 -13 -13 -13 -13 -13 -13
-11 -11 -11 -11 -11 -12 -12 -12 -12 -12 -12 -12 -13 -13 -12 -12 -12 -12 -12 -12 -12 -12 -12 -12 -12 -12 -12 -12 -12 -12 -13 -13 -13 -14 -13 -13 -13 -13 -13 -13 -13 -13 -13
-11 -11 -11 -11 -12 -12 -12 -12 -12 -13 -13 -13 -13 -12 -12 -12 -12 -12 -12 -12 -12 -12 -12 -12 -12 -12 -12 -12 -12 -12 -13 -13 -13 -13 -14 -14 -13 -13 -13 -13 -13 -13 -14
-11 -11 -12 -13 -13 -12 -12 -13 -13 -13 -13 -12 -12 -12 -12 -12 -12 -12 -12 -12 -12 -12 -12 -12 -12 -12 -12 -12 -12 -12 -12 -13 -13 -13 -13 -13 -14 -14 -14 -14 -14 -14 -14
Height
5894 5894 5894 5895 5895 5895 5895 5895 5895 5895 5895 5895 5894 5893 5892 5891 5891 5891 5891 5890 5890 5889 5888 5888 5887 5886 5886 5885 5885 5884 5883 5883 5882 5882 5881 5881 5881 5880 5880 5880 5880 5880 5880
5893 5893 5894 5894 5895 5895 5895 5895 5895 5895 5895 5894 5894 5894 5893 5892 5891 5890 5889 5888 5888 5887 5886 5886 5885 5885 5884 5883 5882 5882 5882 5881 5881 5880 5879 5879 5879 5878 5878 5878 5878 5878 5878
5892 5892 5893 5894 5894 5895 5894 5895 5895 5895 5894 5894 5893 5893 5892 5891 5890 5889 5888 5887 5886 5885 5884 5883 5883 5882 5881 5880 5880 5879 5879 5878 5878 5877 5877 5876 5876 5875 5875 5875 5875 5875 5875
5891 5892 5892 5893 5894 5894 5894 5894 5894 5894 5894 5893 5892 5892 5891 5891 5889 5888 5887 5885 5884 5883 5882 5881 5880 5879 5878 5877 5876 5876 5875 5875 5875 5875 5873 5873 5873 5872 5872 5872 5872 5872 5872
5890 5892 5892 5892 5893 5894 5894 5894 5894 5894 5893 5892 5891 5890 5890 5889 5888 5887 5886 5884 5883 5881 5880 5878 5877 5876 5875 5873 5872 5871 5871 5871 5871 5870 5870 5869 5870 5869 5869 5868 5868 5868 5868
5889 5890 5891 5892 5892 5893 5894 5894 5893 5892 5892 5891 5889 5888 5887 5886 5885 5884 5883 5882 5880 5879 5877 5875 5874 5872 5871 5870 5868 5867 5867 5866 5865 5865 5865 5864 5865 5865 5864 5864 5864 5864 5863
5888 5889 5889 5890 5890 5891 5892 5891 5891 5890 5889 5888 5887 5886 5884 5883 5881 5880 5878 5877 5876 5874 5873 5872 5870 5868 5867 5866 5864 5863 5862 5862 5861 5860 5860 5859 5859 5859 5859 5859 5858 5858 5858
5887 5887 5888 5889 5889 5889 5888 5888 5888 5887 5887 5886 5884 5882 5881 5878 5877 5875 5873 5872 5870 5869 5867 5866 5865 5863 5862 5861 5859 5858 5858 5857 5856 5856 5855 5854 5854 5853 5853 5853 5853 5853 5853
5885 5886 5887 5886 5886 5886 5886 5886 5885 5884 5883 5882 5879 5877 5875 5873 5871 5869 5867 5866 5864 5862 5861 5859 5858 5857 5856 5855 5854 5852 5852 5851 5850 5850 5850 5849 5848 5848 5847 5847 5846 5846 5846
5882 5884 5884 5884 5884 5883 5883 5882 5880 5879 5877 5875 5873 5871 5869 5867 5865 5863 5861 5859 5857 5855 5854 5852 5851 5849 5848 5848 5847 5846 5845 5845 5843 5843 5843 5842 5842 5841 5841 5840 5840 5840 5839
5880 5881 5881 5881 5881 5880 5878 5877 5875 5873 5870 5868 5866 5864 5862 5860 5859 5857 5855 5853 5851 5849 5848 5847 5845 5843 5842 5841 5840 5839 5838 5837 5836 5835 5835 5834 5834 5833 5833 5833 5832 5832 5832
5877 5878 5878 5877 5876 5875 5873 5871 5869 5866 5864 5862 5860 5859 5857 5855 5854 5852 5850 5849 5847 5845 5843 5842 5841 5839 5838 5837 5835 5833 5832 5831 5830 5828 5827 5826 5826 5825 5824 5824 5824 5824 5824
5873 5873 5873 5872 5871 5870 5867 5865 5863 5860 5858 5857 5856 5854 5852 5851 5849 5847 5845 5843 5842 5840 5838 5836 5834 5833 5832 5830 5829 5827 5826 5824 5823 5822 5820 5819 5819 5818 5817 5815 5815 5815 5815
5869 5869 5868 5867 5865 5863 5861 5859 5857 5856 5854 5852 5851 5849 5847 5845 5843 5841 5839 5836 5834 5833 5831 5829 5827 5825 5823 5821 5820 5819 5818 5817 5815 5813 5812 5811 5810 5809 5809 5809 5807 5806 5806
5865 5864 5863 5861 5859 5857 5855 5854 5853 5851 5849 5847 5846 5844 5841 5839 5836 5834 5832 5829 5826 5824 5823 5821 5819 5817 5814 5812 5810 5809 5808 5807 5806 5805 5803 5801 5799 5798 5798 5798 5797 5797 5797
5860 5858 5857 5855 5853 5852 5851 5849 5848 5846 5844 5842 5840 5838 5835 5832 5829 5826 5824 5820 5818 5815 5813 5811 5808 5806 5804 5802 5799 5797 5796 5794 5794 5793 5791 5790 5789 5788 5786 5787 5788 5787 5786
5854 5853 5851 5850 5849 5847 5845 5844 5843 5840 5838 5836 5832 5829 5826 5823 5820 5817 5814 5811 5808 5806 5803 5800 5797 5795 5793 5790 5788 5785 5783 5781 5779 5778 5777 5777 5776 5775 5774 5774 5774 5774 5774
5848 5848 5846 5844 5842 5841 5839 5837 5835 5833 5829 5826 5823 5820 5817 5813 5810 5807 5804 5800 5798 5795 5792 5788 5786 5783 5781 5778 5776 5773 5770 5767 5764 5762 5761 5760 5760 5760 5760 5760 5759 5760 5761
5842 5842 5839 5837 5836 5834 5832 5830 5827 5824 5821 5818 5815 5811 5807 5804 5801 5797 5794 5790 5787 5784 5782 5779 5776 5774 5770 5767 5765 5761 5758 5755 5752 5749 5747 5745 5745 5745 5746 5747 5748 5748 5749
5836 5835 5832 5830 5828 5827 5824 5821 5819 5816 5812 5808 5805 5802 5798 5794 5790 5787 5784 5781 5779 5777 5774 5771 5768 5765 5762 5759 5755 5750 5746 5742 5739 5737 5736 5734 5733 5732 5732 5732 5732 5734 5734
5829 5827 5825 5823 5821 5819 5816 5813 5810 5806 5803 5800 5796 5792 5789 5785 5782 5779 5777 5775 5773 5770 5767 5764 5760 5756 5754 5750 5745 5740 5732 5726 5722 5723 5724 5724 5723 5721 5720 5720 5721 5720 5719
5820 5819 5818 5815 5812 5809 5806 5803 5800 5797 5793 5789 5786 5783 5780 5777 5775 5773 5771 5769 5767 5764 5760 5756 5752 5748 5744 5740 5736 5730 5721 5714 5710 5711 5713 5713 5712 5710 5709 5710 5708 5707 5708
5812 5810 5809 5806 5803 5801 5797 5794 5790 5787 5784 5781 5778 5776 5773 5771 5770 5768 5765 5762 5759 5755 5752 5748 5745 5740 5736 5732 5727 5722 5716 5710 5704 5703 5703 5702 5700 5699 5699 5699 5698 5697 5696
5805 5802 5799 5796 5793 5790 5787 5785 5782 5778 5776 5773 5771 5770 5767 5766 5764 5761 5758 5754 5750 5747 5744 5741 5737 5733 5728 5724 5719 5715 5710 5706 5702 5697 5694 5693 5690 5689 5689 5687 5687 5686 5685
5797 5794 5790 5786 5783 5781 5779 5777 5773 5770 5769 5768 5765 5763 5762 5760 5756 5753 5750 5746 5743 5740 5737 5733 5729 5725 5721 5716 5712 5707 5703 5699 5696 5694 5690 5683 5681 5681 5679 5677 5676 5674 5673
5789 5786 5781 5776 5774 5773 5771 5769 5768 5766 5764 5761 5760 5758 5756 5753 5750 5746 5743 5740 5737 5733 5729 5725 5722 5718 5713 5709 5705 5700 5696 5692 5689 5686 5684 5681 5676 5672 5670 5668 5666 5664 5661
Wind_Speed
6 4 2 1 0 2 2 1 0 2 4 6 6 7 8 10 12 13 13 13 13 14 13 13 12 12 14 14 13 12 12 10 10 9 10 9 11 11 10 10 9 8 8
6 4 3 1 1 1 1 2 2 3 4 6 6 8 8 9 9 9 10 13 15 16 16 16 16 16 15 14 16 16 15 13 12 11 11 10 10 12 13 13 12 12 12
8 7 5 3 3 2 2 3 4 5 6 6 6 7 9 10 10 11 12 12 12 12 14 17 20 20 19 19 18 17 16 17 17 15 15 14 12 12 12 14 15 16 16
10 8 7 6 5 5 4 4 6 7 8 10 11 11 12 12 12 13 13 13 13 14 15 14 15 15 20 24 23 22 21 19 19 18 19 19 17 16 15 15 16 17 18
10 8 7 6 5 6 6 6 8 10 11 12 13 15 17 17 17 16 17 17 17 17 17 16 17 17 17 19 20 24 26 24 24 23 23 21 20 21 21 20 19 19 19
10 8 7 6 6 7 8 9 11 13 15 16 17 18 20 21 22 21 21 21 21 22 22 21 22 21 21 21 21 22 22 23 25 26 27 27 25 24 23 23 24 23 23
9 8 7 7 8 9 11 12 14 15 17 19 21 22 23 24 26 26 26 27 27 27 28 28 27 27 26 26 25 24 23 24 24 25 25 26 29 29 29 28 27 26 27
10 8 9 10 11 12 14 15 16 18 20 23 25 26 27 27 29 30 30 31 32 32 32 32 32 32 31 31 32 32 30 29 28 27 27 27 28 28 28 30 31 32 31
10 10 11 12 14 16 17 18 21 23 25 28 29 30 30 31 33 33 34 35 35 35 35 35 35 35 35 34 35 36 36 35 35 33 32 31 31 30 30 30 31 31 33
11 12 13 15 17 19 21 23 27 29 30 32 33 34 34 35 35 35 35 34 35 35 36 36 36 36 36 36 37 38 39 38 39 37 37 37 35 36 34 34 33 33 33
13 14 15 17 19 22 26 30 32 35 36 35 34 33 32 31 30 29 29 29 30 29 29 29 29 30 29 29 31 33 35 36 39 39 40 40 39 39 38 37 37 36 36
15 17 19 21 23 26 32 35 37 35 34 29 27 26 26 26 25 25 25 25 26 27 28 28 28 29 30 30 31 31 30 30 30 30 32 34 36 37 39 40 40 40 39
19 19 23 26 30 32 34 33 30 28 25 22 23 23 24 26 27 28 28 29 30 30 31 33 34 34 33 34 34 34 34 34 33 33 33 33 33 33 34 36 37 40 41
21 25 28 30 33 35 35 30 26 23 22 23 26 27 27 28 29 30 31 32 32 33 33 35 36 37 38 38 39 39 40 39 39 39 38 39 39 39 38 38 38 37 36
26 29 31 33 36 38 33 29 26 24 25 26 28 29 31 31 32 33 34 35 36 36 37 38 39 40 41 42 43 44 45 45 45 46 45 46 46 45 44 41 41 42 41
29 32 34 36 39 38 29 27 26 27 27 30 31 33 34 35 36 37 39 40 41 42 43 44 44 45 46 47 48 49 50 51 51 51 51 51 51 50 50 48 47 47 47
32 35 38 39 38 32 28 28 29 31 33 35 36 37 39 40 42 43 45 45 46 46 47 48 50 51 53 54 54 55 57 57 57 56 56 55 54 54 55 55 56 53 53
36 39 39 39 34 31 31 31 33 35 37 39 41 43 45 47 48 48 48 48 48 48 47 47 46 46 46 47 46 47 50 53 55 58 59 60 59 57 57 58 60 60 57
40 40 41 36 33 32 33 35 37 40 42 44 46 48 49 49 48 47 45 44 42 39 36 36 37 39 41 41 41 43 46 50 50 48 48 52 53 56 59 60 58 59 60
40 40 38 35 35 37 39 41 43 45 48 49 50 51 50 47 44 43 40 31 31 30 30 35 40 40 40 42 43 43 48 51 53 47 41 40 41 42 42 46 52 58 60
37 36 37 38 40 42 44 46 48 50 51 51 52 46 43 43 37 31 29 27 28 31 35 39 41 41 40 40 42 45 48 52 52 49 46 45 47 47 45 45 46 46 49
38 39 39 42 44 46 48 50 52 54 52 47 43 42 39 34 29 26 26 30 34 37 38 38 38 38 39 39 39 40 39 40 39 43 45 45 47 48 49 46 45 46 46
42 43 44 46 48 50 52 53 48 45 44 42 40 35 29 29 23 27 30 35 39 38 38 35 33 33 35 35 35 32 29 31 35 36 40 44 46 48 47 47 47 48 50
43 46 49 51 52 49 44 43 44 41 40 34 26 28 23 24 28 32 36 40 36 33 31 32 32 31 32 33 33 32 27 26 25 29 37 40 42 44 44 45 46 47 48
42 41 43 45 44 41 40 40 40 33 25 27 26 23 25 29 33 35 31 30 29 30 31 31 31 31 32 32 32 32 32 28 24 25 24 31 36 37 38 40 41 43 45
38 40 43 44 40 36 33 26 25 28 28 26 23 25 30 31 30 32 30 31 31 31 30 30 32 32 31 32 32 31 30 31 31 29 25 28 32 36 37 38 38 39 40
Wind_Direction
278 260 232 171 200 134 129 137 213 316 317 317 323 322 306 294 287 285 285 287 292 293 292 291 294 293 284 282 284 286 288 289 291 300 304 296 281 268 257 258 263 264 266
233 219 223 248 259 334 11 345 328 311 307 314 316 311 311 316 321 320 309 294 285 282 283 285 286 285 284 285 279 276 277 279 280 279 282 288 287 279 271 262 253 253 255
217 218 224 237 250 260 284 310 313 313 318 319 319 318 318 316 315 312 309 306 307 304 293 283 279 278 278 278 277 278 278 273 270 271 270 266 269 274 274 268 263 258 255
214 219 229 240 250 267 279 294 301 304 308 311 313 311 310 309 309 309 308 310 308 301 296 293 292 291 280 275 275 275 273 273 275 273 269 267 266 262 263 265 265 263 261
219 226 231 242 254 266 278 288 294 297 298 299 303 305 306 306 304 302 302 302 301 299 298 294 291 286 284 283 281 275 273 271 270 270 271 269 266 264 264 261 261 263 263
221 227 239 248 258 274 284 289 294 295 297 297 298 299 300 300 298 297 296 295 293 291 290 288 284 285 281 281 279 277 276 273 270 269 267 267 266 266 265 264 263 260 260
219 226 238 254 267 280 289 292 294 298 299 299 297 296 295 296 296 295 294 292 289 286 283 280 278 279 277 276 272 271 272 273 272 271 270 268 267 265 263 263 263 263 262
222 233 249 263 273 279 281 289 297 301 302 301 299 298 296 295 294 292 292 291 290 288 285 283 280 278 275 274 274 272 271 270 270 270 270 270 269 268 267 264 263 263 263
233 248 260 271 280 285 289 295 300 301 302 298 295 295 292 291 290 288 288 288 286 286 285 285 283 280 276 273 272 273 274 273 271 270 268 267 267 267 266 265 264 264 262
247 260 271 280 284 288 293 296 299 300 301 301 301 296 292 292 291 290 289 288 287 285 284 284 283 282 280 277 273 271 271 273 273 273 271 269 268 269 267 267 266 265 265
258 269 280 289 289 291 294 295 298 302 306 305 302 298 296 294 292 289 288 288 287 287 287 287 286 285 283 282 278 276 275 273 272 273 272 271 271 271 271 270 270 268 267
272 282 286 291 293 295 300 301 302 305 305 301 298 296 297 297 296 295 295 293 292 291 290 288 287 286 286 285 284 281 280 278 276 276 275 273 272 271 271 270 270 270 269
273 283 291 295 301 304 305 306 303 297 296 299 301 301 301 300 298 297 294 292 291 289 288 288 288 286 285 284 282 281 279 278 278 277 277 276 276 276 274 274 272 270 268
279 293 297 302 305 311 310 309 303 298 301 306 304 304 303 300 299 298 298 297 295 293 289 286 284 283 283 281 280 278 278 277 276 277 276 277 275 273 272 272 272 272 271
295 298 302 305 309 311 309 303 296 297 302 303 306 308 306 303 301 300 297 296 294 293 292 289 287 285 284 282 279 278 276 275 275 275 275 275 275 275 273 269 268 269 268
295 300 304 308 307 303 299 294 293 297 301 304 305 304 303 299 297 294 292 291 290 289 289 287 285 283 281 280 280 279 277 275 273 271 269 268 268 268 269 270 269 268 268
295 299 302 302 301 298 295 292 292 295 298 301 300 299 297 295 293 291 290 290 289 289 288 288 286 285 283 281 279 279 278 277 274 272 271 269 267 265 264 264 264 263 263
293 295 297 297 295 294 293 291 292 294 296 295 294 294 294 295 295 295 295 294 294 294 293 291 289 288 286 285 284 282 279 278 277 275 272 269 267 266 264 263 261 261 261
289 295 296 293 291 290 288 289 291 292 292 292 293 295 296 297 295 294 294 294 294 295 295 295 296 295 294 292 292 290 288 283 279 280 279 274 271 270 267 264 264 266 266
294 295 291 291 292 291 290 291 291 291 291 294 296 297 296 296 295 294 295 296 295 299 301 300 297 297 298 296 294 293 290 286 277 270 270 273 277 278 276 271 267 265 264
290 287 288 290 289 288 288 289 289 291 294 296 296 295 293 293 295 294 294 298 301 301 303 303 301 300 298 298 294 297 294 283 271 265 267 270 274 272 273 276 273 270 267
286 285 286 284 283 285 288 292 294 294 293 293 293 294 296 294 294 296 299 304 304 302 303 302 303 307 305 303 300 302 306 298 282 268 266 269 273 273 272 273 273 270 269
281 283 283 283 287 290 291 292 290 290 292 293 294 293 290 293 292 295 297 301 304 304 303 305 307 309 311 309 311 309 309 309 296 280 272 273 274 274 274 272 273 271 270
282 285 286 287 286 286 286 289 290 291 291 291 288 294 295 294 293 296 300 305 304 305 306 305 306 308 308 310 312 313 310 300 302 291 287 283 282 280 280 278 275 273 272
283 284 283 282 282 286 291 291 292 292 290 293 292 290 299 303 308 312 309 308 306 306 306 309 309 310 310 310 312 312 314 312 299 285 289 291 286 284 283 281 279 278 276
286 292 292 286 285 287 291 295 296 296 295 291 290 300 308 310 307 307 310 310 308 306 307 309 310 311 311 310 310 309 309 307 306 302 294 286 286 287 285 283 281 280 279